Regional Weather Roundup
Issued by NWS

Home | Current Version | Previous Version | Graphics & Text | Print | Product List | Glossary On
Versions: 1 2 3 4 5 6 7 8 9 10 11 12 13 14 15 16 17 18 19 20 21 22 23 24 25 26 27 28 29 30 31 32 33 34 35 36 37 38 39 40 41 42 43 44 45 46 47 48 49 50
000
ASUS45 KTFX 111304
RWRMT
MONTANA HOURLY WEATHER ROUNDUP
NATIONAL WEATHER SERVICE GREAT FALLS MT
704 AM MDT FRI JUL 11 2014

NOTE: "FAIR" INDICATES FEW OR NO CLOUDS BELOW 12000 FEET WITH NO
SIGNIFICANT WEATHER AND/OR OBSTRUCTIONS TO VISIBILITY.

* THESE STATIONS ARE NOT UNDER NWS QUALITY CONTROL. THEY DO NOT
   REPORT WEATHER SUCH AS PRECIPITATION OR FOG.

MTZ001>007-043-111400-
WEST OF THE DIVIDE
CITY           SKY/WX    TMP DP  RH WIND       PRES   REMARKS
KALISPELL      CLEAR     64  48  56 NE13      30.07R
MISSOULA       CLEAR     55  43  64 CALM      30.06R
BUTTE          PTCLDY    52  37  57 CALM      30.17R
MULLAN PASS    CLEAR     61  37  41 E3        30.16R
* ESSEX        N/A      N/A N/A N/A N/A        N/A
* LINCOLN      N/A       60  50  70 NE9G21     N/A
* LOOKOUT PASS N/A       54  42  64 S2         N/A
* POLSON       N/A       57  48  72 N3         N/A
* RONAN APT    CLEAR     50  45  83 N/A        N/A
* SEELEY LAKE  N/A       42  39  89 N3         N/A
* THOMP F APT  CLEAR     58  44  60 NE4        N/A
* YAAK HILL    N/A       54  49  83 SW1        N/A
$$

MTZ008-052>055-111400-
SOUTHWEST MONTANA
CITY           SKY/WX    TMP DP  RH WIND       PRES   REMARKS
BOZEMAN        CLEAR     55  46  72 S6        30.10R
DILLON         PTCLDY    55  43  64 SW3       30.10R
W YELLOWSTONE  PTCLDY    48  46  93 CALM      30.23R
* THREE FORKS  CLEAR     55  37  51 N/A        N/A
* BOULDER HILL N/A       55  48  77 N14G21     N/A
* MONIDA PASS  N/A       53  46  77 N1         N/A
* RAYNOLDS PAS N/A       52   6  15 NE2        N/A
* WHITEHALL    N/A       63  50  63 NE16G25    N/A
* WISE RIVER   N/A       48  39  71 E2         N/A
$$

MTZ009>010-012-014-046-048-049-054-111400-
EAST SLOPES AND CENTRAL MONTANA
CITY           SKY/WX    TMP DP  RH WIND       PRES   REMARKS
CUT BANK       CLOUDY    55  46  72 N13       30.22R
GREAT FALLS    CLOUDY    61  54  78 N14       30.17R
HELENA         MOCLDY    64  52  65 NW9       30.14R
* CONRAD       PTCLDY    55  54  96 NW9        N/A
* DEARBORN     N/A       63  51  65 NW4G9      N/A
* EAST GLACIER N/A       51  47  86 E7         N/A
* MONARCH      N/A       55  51  86 NW8        N/A
* ROGERS PASS  N/A       54  47  77 S4G11      N/A
* SAINT MARY   N/A       53  47  80 N4         N/A
* SWEET GRASS  N/A       50  50 100 NW6        N/A
$$

MTZ011-013-016-021-035-040-045-047-050-051-111400-
NORTH CENTRAL MONTANA
CITY           SKY/WX    TMP DP  RH WIND       PRES   REMARKS
HAVRE          MOCLDY    61  50  67 NE10      30.14R
* CHESTER      N/A       56  49  77 NE8G13     N/A
* DENTON       N/A       62  56  81 NE8        N/A
* GEYSER       N/A       60  55  84 N/A        N/A
* JUDITH GAP   N/A       59  58  97 NW24G30    N/A
* LOMA         N/A       62  50  65 N19G24     N/A
$$

MTZ017>020-022>027-061-062-111400-
NORTHEAST MONTANA
CITY           SKY/WX    TMP DP  RH WIND       PRES   REMARKS
GLASGOW        LGT RAIN  61  59  93 W10       30.10R
GLENDIVE       MOCLDY    64  55  73 N14       30.10R
JORDAN         CLEAR     64  57  78 NE14      30.08R
SIDNEY         CLOUDY    63  59  87 W9        30.08R
WOLF POINT     MOCLDY    63  55  75 SW8       30.03F
* BEAVER HILL  N/A       62  59  90 NW11G16    N/A
* CIRCLE       N/A       62  59  90 NE7        N/A
* LINDSAY DVD  N/A       59  58  97 N16G21     N/A
* NAVAJO       N/A       58  52  81 NW10       N/A
$$

MTZ028>042-056>058-111400-
SOUTHCENTRAL AND SOUTHEAST MONTANA
CITY           SKY/WX    TMP DP  RH WIND       PRES   REMARKS
BAKER          PTCLDY    63  59  87 E3        30.02R
BILLINGS       PTCLDY    64  48  56 N10       30.03R
LIVINGSTON     CLEAR     63  48  58 W12G20    30.11R
MILES CITY     MOCLDY    66  59  78 NE21G30   30.03R
* LAUREL APT   PTCLDY    64  45  50 NW10G17    N/A
* ROUNDUP APT  CLEAR     66  55  68 N18G26     N/A
* ALZADA       N/A       65  60  84 N/A        N/A
* HYSHAM       N/A       63  58  84 E12G24     N/A
* LAME DEER    N/A       66  52  61 E5         N/A
* REED POINT   N/A       60  49  67 S1G6       N/A
* ROSCOE HILL  N/A       68  40  36 S2         N/A
$$

REGIONAL REPORTS...DAKOTAS
CITY           SKY/WX    TMP DP  RH WIND       PRES   REMARKS
WILLISTON      CLOUDY    64  57  78 N3        30.01R
DICKINSON      MOCLDY    64  61  90 N12       30.00R
CROSBY         N/A       57  57 100 NW13      30.03R
WATFORD CITY   PTCLDY    63  61  93 W5        30.03R
BISMARCK       PTCLDY    66  66 100 NW6       29.91R
GRAND FORKS    FOG       64  64 100 SW5       29.83R VSB M1/4
FARGO          CLEAR     72  68  87 S3        29.82F
BUFFALO SD     CLEAR     66  63  90 N3        29.93R
RAPID CITY     PTCLDY    72  63  73 NW6       29.97R
$$

REGIONAL REPORTS...WYOMING/IDAHO/WASHINGTON
CITY           SKY/WX    TMP DP  RH WIND       PRES   REMARKS
GILLETTE       PTCLDY    66  57  73 SE3       30.03R
SHERIDAN       PTCLDY    63  54  73 CALM      30.00R
CODY           CLEAR     66  52  61 CALM      30.07R
YELLOWSTONE LA PTCLDY    45  43  93 CALM      30.32R
SALMON         CLEAR     55  46  72 CALM      30.04R
MULLAN PASS    CLEAR     61  37  41 E3        30.16S
SAND POINT     CLEAR     52  52 100 CALM      29.98R
SPOKANE        MOCLDY    64  48  56 E6        29.95R

$$



USA.gov is the U.S. government's official web portal to all federal, state and local government web resources and services.